[[{"header":{"parameterUnit":"m.s-1","parameterCategory":2,"la1":30.2992,"la2":30.254,"lo1":-89.0895,"lo2":-89.0443,"dy":0.0025,"dx":0.0025,"nx":19,"ny":19,"refTime":"2026-04-03T03:00:00:Z","depth":"0","parameterNumber":2,"parameterNumberName":"U-component_of_CURRENTS"},"data":[0,0,0,-0.1738,-0.174,-0.1878,-0.1879,-0.2086,-0.2088,0,0,0,0,0,0,0,0,0,0,0,-0.1697,-0.1698,-0.1738,-0.174,-0.1878,-0.188,-0.2086,-0.2088,0,0,0,0,0,0,0,0,0,0,0,-0.1697,-0.1698,-0.1698,-0.174,-0.1878,-0.188,-0.2086,-0.1983,0,0,0,0,0,0,0,0,0,0,-0.1848,-0.1788,-0.1697,-0.1698,-0.1741,-0.1878,-0.188,-0.1978,-0.1989,-0.202,0,-0.2023,0,-0.2041,-0.2099,-0.2099,0,0,0,-0.1777,-0.1779,-0.1812,-0.1698,-0.1741,-0.1878,-0.1826,-0.1984,-0.1997,-0.2035,-0.2026,-0.2033,-0.2044,-0.21,-0.2101,-0.2193,-0.2193,0,0,-0.1769,-0.1735,-0.1803,-0.1819,-0.1754,-0.1822,-0.183,-0.1992,-0.1998,-0.2026,-0.2038,-0.2048,-0.2101,-0.2102,-0.2193,-0.2193,0,0,0,-0.1722,-0.1729,-0.176,-0.1811,-0.1823,-0.1825,-0.1835,-0.1991,-0.1999,-0.204,-0.205,-0.2102,-0.2104,-0.2194,-0.2193,-0.2185,0,0,0,-0.172,-0.1699,-0.1755,-0.1738,-0.1819,-0.1902,-0.183,-0.1989,-0.2007,-0.2049,-0.2102,-0.2106,-0.2194,-0.2193,-0.2186,-0.2168,0,0,0,-0.1695,-0.1697,-0.1705,-0.1736,-0.1778,-0.19,-0.192,-0.1994,-0.2012,-0.21,-0.2106,-0.2194,-0.2194,-0.2186,-0.2169,-0.208,0,0,0,-0.1669,-0.1714,-0.1703,-0.1779,-0.1776,-0.1913,-0.1919,-0.2037,-0.2119,-0.2103,-0.2194,-0.2193,-0.2187,-0.217,-0.2083,-0.1934,-0.1912,0,0,-0.1724,-0.1719,-0.1775,-0.1769,-0.1904,-0.1898,-0.2004,-0.2101,-0.2109,-0.215,-0.2153,-0.2185,-0.2169,-0.2081,-0.1903,-0.1881,0,0,0,-0.1795,-0.1823,-0.1871,-0.1936,-0.2015,-0.2038,-0.2116,-0.2107,-0.2132,-0.2143,-0.2177,-0.2166,-0.211,-0.2026,-0.2009,-0.1969,-0.2191,-0.2191,-0.2191,-0.1805,-0.1875,-0.1973,-0.205,-0.2107,-0.2151,-0.2156,-0.2138,-0.2176,-0.2149,-0.2154,-0.2073,-0.1985,-0.197,-0.1933,-0.2155,-0.2155,-0.2154,-0.2154,-0.1887,-0.1932,-0.2009,-0.212,-0.2138,-0.2193,-0.2168,-0.2151,-0.2088,-0.2123,-0.2069,-0.2015,-0.195,-0.1917,-0.2154,-0.2154,-0.2154,-0.2154,-0.2154,-0.1871,-0.1897,-0.1975,-0.2079,-0.213,-0.2162,-0.2095,-0.2097,-0.206,-0.2026,-0.1882,-0.1881,-0.1851,-0.1984,-0.1984,-0.1983,-0.1983,-0.1983,-0.1982,-0.1786,-0.1873,-0.1903,-0.2021,-0.2046,-0.2048,-0.2035,-0.1973,-0.1873,-0.1837,-0.1835,-0.1804,-0.202,-0.2025,-0.1975,-0.1976,-0.1977,-0.1978,-0.1978,-0.1729,-0.1734,-0.1777,-0.1805,-0.1857,-0.178,-0.1827,-0.1681,-0.1626,-0.1536,-0.1542,-0.1712,-0.1683,-0.1695,-0.1692,-0.1558,-0.1558,-0.1558,-0.1558,-0.1622,-0.1653,-0.1627,-0.1623,-0.161,-0.1628,-0.1419,-0.1368,-0.1326,-0.1287,-0.1352,-0.1377,-0.1396,-0.1354,-0.1374,-0.1367,-0.1153,-0.1153,-0.1153,-0.1536,-0.1551,-0.1478,-0.1506,-0.1495,-0.1411,-0.1212,-0.111,-0.1089,-0.1141,-0.1326,-0.1343,-0.1395,-0.1428,-0.1379,-0.141,-0.1405,0,0]},{"header":{"parameterUnit":"m.s-1","parameterCategory":2,"la1":30.2992,"la2":30.254,"lo1":-89.0895,"lo2":-89.0443,"dy":0.0025,"dx":0.0025,"nx":19,"ny":19,"refTime":"2026-04-03T03:00:00:Z","depth":"0","parameterNumber":3,"parameterNumberName":"V-component_of_CURRENTS"},"data":[0,0,0,-0.0291,-0.0291,-0.0249,-0.0249,-0.0005,-0.0003,0,0,0,0,0,0,0,0,0,0,0,-0.0298,-0.0298,-0.0291,-0.0291,-0.0249,-0.0249,-0.0006,-0.0003,0,0,0,0,0,0,0,0,0,0,0,-0.0298,-0.0298,-0.0298,-0.0291,-0.0249,-0.0249,-0.0006,-0.008,0,0,0,0,0,0,0,0,0,0,-0.0143,-0.0189,-0.0298,-0.0298,-0.0291,-0.0249,-0.0249,-0.0086,-0.0076,0.0024,0,0.0019,0,0.0008,0.0016,0.0017,0,0,0,-0.0272,-0.0198,-0.0185,-0.0298,-0.0291,-0.0249,-0.0262,-0.0082,-0.007,0.0039,0.0022,0.003,0.0012,0.0018,0.0019,0.025,0.025,0,0,-0.0274,-0.0282,-0.0194,-0.0178,-0.0289,-0.0264,-0.0261,-0.0076,-0.0064,0.0023,0.0034,0.0016,0.002,0.0022,0.0249,0.025,0,0,0,-0.0294,-0.0283,-0.0278,-0.0186,-0.0197,-0.0263,-0.026,-0.0072,-0.0071,0.0037,0.0019,0.0021,0.0025,0.0249,0.025,0.0187,0,0,0,-0.0294,-0.0296,-0.028,-0.0283,-0.0203,-0.0162,-0.026,-0.0084,-0.0064,0.0018,0.0022,0.0028,0.0248,0.0249,0.0188,0.0147,0,0,0,-0.0298,-0.0297,-0.0296,-0.0283,-0.0276,-0.0167,-0.0155,-0.0081,-0.0074,0.0017,0.0028,0.0248,0.0249,0.0188,0.0149,0.0182,0,0,0,-0.0301,-0.0323,-0.0296,-0.0317,-0.0276,-0.023,-0.0157,-0.0104,-0.0035,0.0023,0.0249,0.0249,0.0189,0.015,0.0183,0.0181,0.0179,0,0,-0.0337,-0.0327,-0.0341,-0.0317,-0.0306,-0.0234,-0.0168,-0.0055,0.0022,0.0204,0.0208,0.0188,0.0149,0.0183,0.0238,0.0233,0,0,0,-0.0358,-0.0368,-0.0359,-0.0346,-0.0293,-0.0213,-0.0107,-0.0037,0.0092,0.0064,0.0225,0.0204,0.0226,0.0228,0.0225,0.0366,0.0254,0.0254,0.0254,-0.0407,-0.0391,-0.0396,-0.0354,-0.0304,-0.0177,-0.0099,0.003,0.0105,0.0148,0.0181,0.0199,0.0201,0.0199,0.0344,0.0222,0.0222,0.0222,0.0222,-0.0473,-0.0486,-0.0423,-0.0429,-0.0316,-0.0233,-0.0051,0.001,0.0147,0.0176,0.0202,0.0196,0.0191,0.0348,0.0218,0.0219,0.0219,0.022,0.022,-0.053,-0.053,-0.0526,-0.05,-0.0408,-0.0273,-0.0167,-0.0038,0.0085,0.0113,0.0163,0.0165,0.0281,0.0136,0.0136,0.0136,0.0136,0.0136,0.0136,-0.0597,-0.0586,-0.0607,-0.0567,-0.0525,-0.043,-0.0236,-0.0145,0.0006,0.01,0.0101,0.0314,0.0174,0.0152,0.0136,0.0136,0.0136,0.0136,0.0136,-0.0683,-0.068,-0.0712,-0.07,-0.0613,-0.0537,-0.0373,-0.017,-0.0057,0.0016,0.0293,0.0126,0.0153,0.0157,0.0137,0.0117,0.0117,0.0117,0.0117,-0.0734,-0.0738,-0.0773,-0.0762,-0.0707,-0.058,-0.0427,-0.0182,0.0146,0.0321,0.0367,0.0396,0.0391,0.0436,0.0433,0.042,0.0474,0.0474,0.0475,-0.0775,-0.0782,-0.0807,-0.0801,-0.0737,-0.0625,-0.045,-0.0088,0.0367,0.0506,0.0567,0.0551,0.0611,0.0591,0.0674,0.0659,0.0642,0,0]}],[{"header":{"parameterUnit":"m.s-1","parameterCategory":2,"la1":30.2992,"la2":30.254,"lo1":-89.0895,"lo2":-89.0443,"dy":0.0025,"dx":0.0025,"nx":19,"ny":19,"refTime":"2026-04-03T03:00:00:Z","depth":"2","parameterNumber":2,"parameterNumberName":"U-component_of_CURRENTS"},"data":[0,0,0,-0.1543,-0.1545,-0.1648,-0.1649,-0.1776,-0.1777,0,0,0,0,0,0,0,0,0,0,0,-0.1511,-0.1511,-0.1543,-0.1545,-0.1648,-0.1649,-0.1776,-0.1777,0,0,0,0,0,0,0,0,0,0,0,-0.1511,-0.1511,-0.1511,-0.1545,-0.1648,-0.1649,-0.1776,-0.1705,0,0,0,0,0,0,0,0,0,0,-0.1608,-0.1567,-0.1511,-0.1511,-0.1546,-0.1647,-0.1649,-0.1702,-0.1709,-0.1721,0,-0.1725,0,-0.1742,-0.1783,-0.1784,0,0,0,-0.1569,-0.156,-0.1586,-0.1511,-0.1546,-0.1647,-0.1608,-0.1706,-0.1715,-0.1731,-0.1727,-0.1731,-0.1744,-0.1784,-0.1784,-0.1865,-0.1865,0,0,-0.1563,-0.1537,-0.158,-0.1591,-0.1557,-0.1605,-0.1611,-0.1712,-0.1714,-0.1727,-0.1734,-0.1746,-0.1785,-0.1785,-0.1864,-0.1865,0,0,0,-0.1531,-0.1532,-0.1557,-0.1585,-0.1598,-0.1607,-0.1614,-0.171,-0.1717,-0.1736,-0.1747,-0.1785,-0.1786,-0.1864,-0.1864,-0.1868,0,0,0,-0.1528,-0.1512,-0.1554,-0.154,-0.1595,-0.1654,-0.1611,-0.1711,-0.1722,-0.1747,-0.1785,-0.1787,-0.1864,-0.1864,-0.1868,-0.1836,0,0,0,-0.1509,-0.151,-0.1517,-0.1538,-0.1572,-0.1653,-0.1668,-0.1714,-0.1728,-0.1784,-0.1787,-0.1864,-0.1864,-0.1867,-0.1837,-0.1773,0,0,0,-0.1488,-0.1519,-0.1516,-0.1567,-0.157,-0.1667,-0.1667,-0.1759,-0.1815,-0.1786,-0.1864,-0.1864,-0.1867,-0.1837,-0.1775,-0.1622,-0.1604,0,0,-0.1524,-0.1522,-0.1559,-0.156,-0.1652,-0.1655,-0.1724,-0.1796,-0.1816,-0.1834,-0.1837,-0.1868,-0.1837,-0.1774,-0.1646,-0.1627,0,0,0,-0.1571,-0.1587,-0.1621,-0.1666,-0.1726,-0.1752,-0.1805,-0.1807,-0.1848,-0.1842,-0.1876,-0.1855,-0.1815,-0.1726,-0.1712,-0.1866,-0.1866,-0.1866,-0.1866,-0.1566,-0.1616,-0.1677,-0.1733,-0.1784,-0.1827,-0.184,-0.1841,-0.1871,-0.1882,-0.1865,-0.1827,-0.1736,-0.1722,-0.1891,-0.1891,-0.1891,-0.1891,-0.1891,-0.1608,-0.163,-0.1692,-0.177,-0.18,-0.1849,-0.1854,-0.186,-0.1821,-0.1862,-0.1823,-0.1744,-0.1705,-0.1892,-0.1892,-0.1891,-0.1891,-0.1891,-0.1891,-0.1585,-0.1597,-0.1657,-0.1731,-0.1791,-0.1837,-0.1799,-0.1819,-0.1812,-0.1787,-0.1656,-0.1654,-0.1786,-0.1767,-0.1766,-0.1766,-0.1766,-0.1765,-0.1765,-0.1513,-0.1572,-0.1591,-0.1685,-0.1716,-0.1745,-0.1759,-0.1713,-0.1638,-0.1615,-0.1613,-0.1783,-0.1787,-0.1777,-0.1759,-0.176,-0.1761,-0.1762,-0.1762,-0.1448,-0.1461,-0.1482,-0.1508,-0.1562,-0.1509,-0.1573,-0.1454,-0.1413,-0.1337,-0.1499,-0.1507,-0.1472,-0.1482,-0.1465,-0.1366,-0.1366,-0.1366,-0.1366,-0.1356,-0.1381,-0.135,-0.1348,-0.1343,-0.1376,-0.1196,-0.1139,-0.1157,-0.1152,-0.1162,-0.118,-0.12,-0.1151,-0.117,-0.1147,-0.0966,-0.0966,-0.0965,-0.1271,-0.1283,-0.1217,-0.1241,-0.1242,-0.118,-0.1,-0.0853,-0.0826,-0.0956,-0.1153,-0.1328,-0.1383,-0.1403,-0.1354,-0.1374,-0.1348,0,0]},{"header":{"parameterUnit":"m.s-1","parameterCategory":2,"la1":30.2992,"la2":30.254,"lo1":-89.0895,"lo2":-89.0443,"dy":0.0025,"dx":0.0025,"nx":19,"ny":19,"refTime":"2026-04-03T03:00:00:Z","depth":"2","parameterNumber":3,"parameterNumberName":"V-component_of_CURRENTS"},"data":[0,0,0,-0.0341,-0.0341,-0.0326,-0.0326,-0.017,-0.0169,0,0,0,0,0,0,0,0,0,0,0,-0.034,-0.0341,-0.0341,-0.0341,-0.0326,-0.0326,-0.0171,-0.0169,0,0,0,0,0,0,0,0,0,0,0,-0.034,-0.034,-0.0341,-0.0341,-0.0326,-0.0326,-0.0171,-0.0213,0,0,0,0,0,0,0,0,0,0,-0.0243,-0.0271,-0.034,-0.0341,-0.0341,-0.0326,-0.0326,-0.0217,-0.0211,-0.0141,0,-0.0146,0,-0.0157,-0.0156,-0.0155,0,0,0,-0.033,-0.0277,-0.0271,-0.0341,-0.0341,-0.0326,-0.0329,-0.0214,-0.0207,-0.0132,-0.0144,-0.014,-0.0154,-0.0155,-0.0154,0.0012,0.0012,0,0,-0.033,-0.0333,-0.0276,-0.0267,-0.0342,-0.033,-0.0329,-0.0211,-0.0203,-0.0144,-0.0137,-0.0151,-0.0154,-0.0152,0.0011,0.0012,0,0,0,-0.034,-0.0334,-0.0333,-0.0272,-0.0282,-0.033,-0.0329,-0.0209,-0.0209,-0.0135,-0.015,-0.0153,-0.015,0.0011,0.0012,-0.0041,0,0,0,-0.034,-0.034,-0.0334,-0.0334,-0.0286,-0.0265,-0.0329,-0.0217,-0.0205,-0.015,-0.0153,-0.0148,0.0011,0.0011,-0.0041,-0.0079,0,0,0,-0.034,-0.034,-0.0341,-0.0335,-0.0334,-0.0268,-0.0262,-0.0215,-0.0213,-0.0155,-0.0148,0.001,0.0011,-0.004,-0.0078,-0.0026,0,0,0,-0.034,-0.0371,-0.0341,-0.0377,-0.0335,-0.0331,-0.0263,-0.0242,-0.0201,-0.0152,0.0011,0.0012,-0.004,-0.0076,-0.0026,-0.0016,-0.0015,0,0,-0.0387,-0.0376,-0.0401,-0.0375,-0.0403,-0.0332,-0.0316,-0.0233,-0.0153,-0.0017,-0.0014,-0.0041,-0.0077,-0.0026,0.0041,0.004,0,0,0,-0.0422,-0.0439,-0.0443,-0.0449,-0.0423,-0.0362,-0.0291,-0.0224,-0.0104,-0.0126,-0.0006,-0.0027,0.0007,0.0015,0.0015,0.0016,0.0016,0.0016,0.0016,-0.048,-0.048,-0.0514,-0.0497,-0.0468,-0.0374,-0.0306,-0.0183,-0.0123,-0.0063,-0.0043,-0.0008,-0.0001,-0.0001,-0.0003,-0.0003,-0.0004,-0.0004,-0.0004,-0.0566,-0.0594,-0.0555,-0.0588,-0.05,-0.045,-0.028,-0.0212,-0.0074,-0.0044,-0.0007,-0.001,-0.0005,-0.0007,-0.0007,-0.0006,-0.0006,-0.0006,-0.0005,-0.0623,-0.0635,-0.0645,-0.0652,-0.0587,-0.0478,-0.037,-0.0248,-0.0116,-0.0083,-0.0015,-0.0014,-0.0042,-0.0047,-0.0046,-0.0046,-0.0046,-0.0046,-0.0046,-0.0678,-0.0688,-0.0719,-0.0709,-0.0682,-0.0594,-0.0414,-0.0318,-0.0159,-0.0067,-0.0066,-0.0021,-0.002,-0.0041,-0.0045,-0.0046,-0.0046,-0.0046,-0.0046,-0.0763,-0.0756,-0.0804,-0.0803,-0.0743,-0.0665,-0.0512,-0.03,-0.0183,-0.0102,-0.0024,-0.0025,0.0004,0.0005,-0.0013,-0.001,-0.001,-0.001,-0.001,-0.0802,-0.081,-0.0852,-0.085,-0.0806,-0.0689,-0.052,-0.0291,-0.0093,0.0002,0.0001,-0.0005,-0.0006,0.0022,0.0023,0.0005,0.0013,0.0013,0.0013,-0.084,-0.0849,-0.0875,-0.0878,-0.0825,-0.0709,-0.0524,-0.0217,0.002,0.0014,0.0,-0.0007,-0.0018,-0.002,0.0023,0.0024,-0.0004,0,0]}],[{"header":{"parameterUnit":"m.s-1","parameterCategory":2,"la1":30.2992,"la2":30.254,"lo1":-89.0895,"lo2":-89.0443,"dy":0.0025,"dx":0.0025,"nx":19,"ny":19,"refTime":"2026-04-03T03:00:00:Z","depth":"4","parameterNumber":2,"parameterNumberName":"U-component_of_CURRENTS"},"data":[0,0,0,-0.1072,-0.1074,-0.1123,-0.1123,-0.1099,-0.1099,0,0,0,0,0,0,0,0,0,0,0,-0.1048,-0.1048,-0.1072,-0.1074,-0.1123,-0.1123,-0.1099,-0.1099,0,0,0,0,0,0,0,0,0,0,0,-0.1048,-0.1048,-0.1049,-0.1074,-0.1123,-0.1123,-0.1099,-0.1081,0,0,0,0,0,0,0,0,0,0,-0.1042,-0.104,-0.1048,-0.1049,-0.1074,-0.1123,-0.1123,-0.108,-0.1082,-0.1056,0,-0.1071,0,-0.1091,-0.1096,-0.1096,0,0,0,-0.1061,-0.1039,-0.1053,-0.1049,-0.1075,-0.1123,-0.1097,-0.1082,-0.1083,-0.1057,-0.1071,-0.1071,-0.1091,-0.1096,-0.1096,-0.105,-0.1049,0,0,-0.1058,-0.1053,-0.1053,-0.1054,-0.1096,-0.1096,-0.1099,-0.1083,-0.1085,-0.1071,-0.1071,-0.109,-0.1096,-0.1096,-0.105,-0.1049,0,0,0,-0.1059,-0.1051,-0.1066,-0.1054,-0.1074,-0.1097,-0.1101,-0.1086,-0.1092,-0.1071,-0.109,-0.1096,-0.1095,-0.105,-0.105,-0.1079,0,0,0,-0.1057,-0.1052,-0.1065,-0.1061,-0.1075,-0.1094,-0.1104,-0.1093,-0.1092,-0.109,-0.1096,-0.1095,-0.105,-0.105,-0.1079,-0.1076,0,0,0,-0.1044,-0.1051,-0.1059,-0.1061,-0.109,-0.1096,-0.1101,-0.1093,-0.1104,-0.1096,-0.1095,-0.105,-0.105,-0.1079,-0.1076,-0.1039,0,0,0,-0.1032,-0.1041,-0.1059,-0.1072,-0.1089,-0.1096,-0.1101,-0.1104,-0.1097,-0.1095,-0.105,-0.105,-0.1079,-0.1076,-0.104,-0.0955,0,0,0,-0.1032,-0.1041,-0.1047,-0.1065,-0.1058,-0.1088,-0.1081,-0.1079,-0.1077,-0.1048,-0.1047,-0.1079,-0.1076,-0.1039,-0.0923,0,0,0,0,-0.1039,-0.1038,-0.1041,-0.1046,-0.1058,-0.1059,-0.107,-0.1067,-0.1063,-0.1075,-0.1059,-0.1055,-0.1032,-0.0983,-0.1047,-0.1047,-0.1047,-0.1047,-0.1047,-0.1006,-0.1015,-0.1004,-0.101,-0.1016,-0.1034,-0.1036,-0.1031,-0.1046,-0.1045,-0.1066,-0.1038,-0.0988,-0.1058,-0.1058,-0.1058,-0.1058,-0.1058,-0.1058,-0.097,-0.0949,-0.0965,-0.0965,-0.0973,-0.0981,-0.0995,-0.102,-0.1024,-0.1047,-0.1023,-0.1002,-0.1061,-0.106,-0.106,-0.106,-0.1059,-0.1059,-0.1059,-0.0921,-0.0907,-0.0931,-0.0919,-0.0927,-0.096,-0.0962,-0.1005,-0.1028,-0.1037,-0.0967,-0.1034,-0.1045,-0.1037,-0.1037,-0.1036,-0.1036,-0.1036,-0.1036,-0.0849,-0.0864,-0.0855,-0.0866,-0.0864,-0.0892,-0.095,-0.0961,-0.1003,-0.0966,-0.1048,-0.1029,-0.103,-0.1041,-0.1034,-0.1034,-0.1034,-0.1035,-0.1035,-0.0749,-0.0785,-0.0756,-0.0756,-0.0762,-0.0777,-0.0857,-0.0881,-0.0872,-0.0849,-0.0905,-0.0912,-0.0881,-0.0884,-0.089,-0.0837,-0.0836,-0.0835,0,-0.0675,-0.0693,-0.0655,-0.0636,-0.0631,-0.0697,-0.0705,-0.0755,-0.078,-0.0752,-0.0855,-0.0916,-0.0922,-0.0887,-0.0889,-0.0893,0,0,0,-0.0589,-0.0599,-0.0548,-0.0569,-0.056,-0.0622,-0.0709,-0.0701,-0.0778,-0.077,-0.0806,-0.0813,-0.0972,-0.1026,-0.0994,-0.0995,-0.101,0,0]},{"header":{"parameterUnit":"m.s-1","parameterCategory":2,"la1":30.2992,"la2":30.254,"lo1":-89.0895,"lo2":-89.0443,"dy":0.0025,"dx":0.0025,"nx":19,"ny":19,"refTime":"2026-04-03T03:00:00:Z","depth":"4","parameterNumber":3,"parameterNumberName":"V-component_of_CURRENTS"},"data":[0,0,0,-0.0279,-0.028,-0.0322,-0.0322,-0.0346,-0.0346,0,0,0,0,0,0,0,0,0,0,0,-0.0265,-0.0265,-0.0279,-0.028,-0.0322,-0.0322,-0.0346,-0.0346,0,0,0,0,0,0,0,0,0,0,0,-0.0265,-0.0265,-0.0266,-0.028,-0.0322,-0.0322,-0.0346,-0.0322,0,0,0,0,0,0,0,0,0,0,-0.0285,-0.0278,-0.0265,-0.0266,-0.028,-0.0322,-0.0322,-0.0321,-0.0323,-0.0317,0,-0.0325,0,-0.0334,-0.0347,-0.0347,0,0,0,-0.0282,-0.0276,-0.0285,-0.0266,-0.0281,-0.0322,-0.0304,-0.0323,-0.0325,-0.032,-0.0325,-0.0326,-0.0334,-0.0347,-0.0347,-0.0403,-0.0403,0,0,-0.028,-0.0275,-0.0283,-0.0286,-0.0292,-0.0302,-0.0305,-0.0325,-0.0328,-0.0325,-0.0327,-0.0335,-0.0347,-0.0347,-0.0402,-0.0403,0,0,0,-0.0272,-0.0273,-0.0282,-0.0285,-0.0294,-0.0303,-0.0307,-0.0328,-0.033,-0.0327,-0.0335,-0.0347,-0.0347,-0.0402,-0.0403,-0.0436,0,0,0,-0.027,-0.0268,-0.0281,-0.0279,-0.0294,-0.0316,-0.0309,-0.0329,-0.0331,-0.0335,-0.0347,-0.0347,-0.0401,-0.0402,-0.0433,-0.0434,0,0,0,-0.0263,-0.0268,-0.0272,-0.0278,-0.0296,-0.0316,-0.032,-0.033,-0.0335,-0.0347,-0.0347,-0.0401,-0.0402,-0.0431,-0.0431,-0.0376,0,0,0,-0.0257,-0.0297,-0.0272,-0.0325,-0.0295,-0.0367,-0.032,-0.0371,-0.039,-0.0347,-0.0401,-0.0403,-0.0431,-0.0429,-0.0376,-0.0319,0,0,0,-0.0311,-0.0303,-0.0339,-0.0318,-0.0399,-0.0361,-0.0429,-0.0426,-0.0402,-0.0391,-0.0393,-0.0434,-0.0431,-0.0376,-0.0397,0,0,0,0,-0.036,-0.0383,-0.0406,-0.044,-0.047,-0.048,-0.0483,-0.0468,-0.0458,-0.0416,-0.0451,-0.0448,-0.0412,-0.038,-0.0409,-0.0409,-0.0409,-0.0408,-0.0408,-0.0419,-0.0442,-0.0508,-0.0537,-0.0567,-0.057,-0.0566,-0.0538,-0.052,-0.0519,-0.0488,-0.0488,-0.0461,-0.0511,-0.0511,-0.0511,-0.0511,-0.0511,-0.0511,-0.0507,-0.0547,-0.0565,-0.0638,-0.0637,-0.0675,-0.0636,-0.0605,-0.0544,-0.0543,-0.0505,-0.0437,-0.0515,-0.0514,-0.0514,-0.0513,-0.0513,-0.0513,-0.0513,-0.0547,-0.0569,-0.0611,-0.0683,-0.0716,-0.0714,-0.0669,-0.0629,-0.0568,-0.0534,-0.044,-0.0485,-0.0462,-0.0494,-0.0494,-0.0493,-0.0493,-0.0493,-0.0493,-0.0563,-0.0606,-0.0659,-0.0724,-0.0748,-0.0744,-0.0676,-0.0602,-0.0531,-0.0458,-0.0518,-0.048,-0.0481,-0.046,-0.049,-0.049,-0.0491,-0.0491,-0.0491,-0.0608,-0.0617,-0.0686,-0.0721,-0.0756,-0.0734,-0.0686,-0.0515,-0.0417,-0.0331,-0.0397,-0.0403,-0.0365,-0.0368,-0.0341,-0.0336,-0.0335,-0.0335,0,-0.0613,-0.0632,-0.0695,-0.0728,-0.0723,-0.0716,-0.0563,-0.0466,-0.0374,-0.0385,-0.0423,-0.0507,-0.0508,-0.0477,-0.0477,-0.0452,0,0,0,-0.0624,-0.0643,-0.0675,-0.0717,-0.0707,-0.0583,-0.0516,-0.0445,-0.042,-0.0278,-0.0318,-0.0322,-0.0424,-0.048,-0.0434,-0.0435,-0.0397,0,0]}]]